Simultaneous Nadir Overpasses (SNOs) Predictions

Prediction of SNOs between METOP-A and TERRA Satellite Orbit:

Table of predicted SNOs for the next 14.0 days since TLE Epoch: 5/27/2017
Index Date (METOP-A) Time (METOP-A) Lat,Lon (METOP-A) SZA (METOP-A ) Date (TERRA) Time (TERRA) Lat,Lon (TERRA) SZA (TERRA ) Distance(km) Time Diff (sec)
1 05/28/2017 06:33:47 -81.34, -50.74 117.12 05/28/2017 06:34:39 -81.34, -50.71 117.09 0.70 52
2 05/28/2017 07:24:27 81.34, 116.97 62.93 05/28/2017 07:24:05 81.34, 117.05 62.92 1.28 22
3 05/31/2017 02:08:08 -81.34, 15.71 117.55 05/31/2017 02:08:55 -81.34, 15.76 117.52 0.94 47
4 05/31/2017 02:58:48 81.34,-176.59 62.50 05/31/2017 02:58:21 81.34,-176.51 62.49 1.34 27
5 06/02/2017 21:42:28 -81.34, 82.53 117.88 06/02/2017 21:43:11 -81.35, 82.43 117.87 1.66 43
6 06/02/2017 22:33:08 81.35,-109.78 62.16 06/02/2017 22:32:37 81.35,-109.86 62.14 1.47 31
7 06/05/2017 17:16:49 -81.34, 148.54 118.26 06/05/2017 17:17:28 -81.33, 148.56 118.25 0.72 39
8 06/05/2017 18:07:29 81.34, -43.78 61.78 06/05/2017 18:06:54 81.34, -43.76 61.76 0.89 35
9 06/08/2017 12:51:09 -81.34,-144.68 118.50 06/08/2017 12:51:45 -81.35,-144.73 118.49 1.08 36




NCC Satellite Simultaneous Nadir Overpasses (SNOs) Prediction Service
